Regional Weather Roundup
Issued by NWS

Home | Current Version | Previous Version | Graphics & Text | Print | Product List | Glossary On
Versions: 1 2 3 4 5 6 7 8 9 10 11 12 13 14 15 16 17 18 19 20 21 22 23 24 25 26 27 28 29 30 31 32 33 34 35 36 37 38 39 40 41 42 43 44 45 46 47 48
000
ASUS43 KDMX 241607
RWRIA

WEATHER ROUNDUP FOR IOWA
NATIONAL WEATHER SERVICE DES MOINES IA
1000 AM CST WED DEC 24 2014

NOTE: "FAIR" INDICATES FEW OR NO CLOUDS BELOW 12,000 FEET WITH NO
SIGNIFICANT WEATHER AND/OR OBSTRUCTIONS TO VISIBILITY.

* - THESE STATIONS ARE NOT NWS STATIONS...THUS NOT UNDER NWS
QUALITY CONTROL.  THEY ALSO DO NOT REPORT WEATHER SUCH
AS PRECIPITATION OR FOG.

IAZ001>003-012>014-020>022-031>034-043>046-241700-
   NORTHWEST IOWA

CITY           SKY/WX    TMP DP  RH WIND       PRES   REMARKS
CARROLL *      CLOUDY    32  32 100 NW17      29.81S WCI  21
CHEROKEE *     CLOUDY    32  32 100 NW7       29.84S FOG     WCI  26
DENISON *      CLOUDY    32  32 100 NW10      29.82S WCI  24
LE MARS *      CLOUDY    30  30 100 NW13G20   29.87S FOG     WCI  20
ORANGE CITY *  CLOUDY    30  28  93 NW9       29.85R FOG     WCI  22
SHELDON *      CLOUDY    30  32 100 NW12      29.83R WCI  21
SIOUX CITY     CLOUDY    30  27  88 NW14      29.88S WCI  19
SPENCER        LGT SNOW  33  30  88 NW10      29.81S FOG     WCI  25
STORM LAKE *   LGT SNOW  32  30  93 NW15      29.82R WCI  22
$$

IAZ055>058-069>071-079>083-090>094-241700-
   SOUTHWEST IOWA

CITY           SKY/WX    TMP DP  RH WIND       PRES   REMARKS
ATLANTIC *     CLOUDY    34  32  93 N13G20    29.82S WCI  25
AUDUBON *      MOSUNNY   32  27  80 N12       29.82S WCI  23
CLARINDA *     CLOUDY    36  32  87 NW13G18   29.86R WCI  27
COUNCIL BLFS * CLOUDY    32  32 100 NW10G20   29.86R WCI  24
CRESTON *      CLOUDY    34  34 100 NW13      29.80R WCI  25
HARLAN  *      CLOUDY    34  34 100 NW15      29.87S WCI  24
LAMONI         CLOUDY    35  32  88 NW15G24   29.78R WCI  25
RED OAK *      CLOUDY    34  32  93 NW15      29.85R WCI  24
SHENANDOAH *   CLOUDY    36  34  93 NW14      29.86S WCI  27
$$

IAZ047>049-059>061-072>074-084-241700-
   CENTRAL IOWA

CITY           SKY/WX    TMP DP  RH WIND       PRES   REMARKS
AMES           CLOUDY    34  31  88 N14       29.77R WCI  25
ANKENY *       CLOUDY    34  32  93 NW13G20   29.78R WCI  25
CHARITON *     CLOUDY    34  32  93 MISG      29.76R
DES MOINES     CLOUDY    35  31  85 NW12      29.79R WCI  27
GRINNELL*      CLOUDY    36  34  93 NW17      29.72F WCI  25
KNOXVILLE *    CLOUDY    36  32  87 NW18      29.74S WCI  25
MARSHALLTOWN   CLOUDY    34  31  88 NW12      29.73S WCI  25
PELLA *        CLOUDY    36  34  93 NW14      29.75S WCI  27
PERRY *        CLOUDY    34  32  93 NW13      29.80S WCI  25
$$

IAZ004>006-015-016-023>025-035-036-241700-
   NORTH CENTRAL IOWA

CITY           SKY/WX    TMP DP  RH WIND       PRES   REMARKS
ALGONA *       CLOUDY    32  32 100 N13G21    29.78S WCI  22
ESTHERVILLE    CLOUDY    30  28  93 NW14      29.79S WCI  20
FORT DODGE *   CLOUDY    34  28  80 NW7       29.79S WCI  28
MASON CITY     CLOUDY    33  31  92 NW16      29.76S WCI  23
FOREST CITY *  CLOUDY    32  32 100 NW13      29.76S WCI  22
IOWA FALLS *   CLOUDY    34  32  93 NW15      29.75S WCI  24
$$

IAZ007>011-017>019-026>030-037>042-050>054-066-241700-
   NORTHEAST IOWA

CITY           SKY/WX    TMP DP  RH WIND       PRES   REMARKS
CEDAR RAPIDS   CLOUDY    34  32  92 N14       29.67F WCI  25
CHARLES CITY * CLOUDY    34  34 100 NW10      29.72F FOG     WCI  26
CLINTON *      CLOUDY    36  32  87 NW8       29.67F WCI  29
DECORAH *      CLOUDY    34  32  93 NW12G17   29.67S WCI  25
DUBUQUE        CLOUDY    33  32  96 N12       29.63F WCI  24
MONTICELLO *   CLOUDY    36  36 100 VRB3      29.66S
OELWEIN *      CLOUDY    34  32  93 NW14      29.69S WCI  24
WATERLOO       LGT RAIN  35  33  92 NW13      29.71S WCI  26
$$

IAZ064-065-067-068-078-241700-
   EAST CENTRAL IOWA

CITY           SKY/WX    TMP DP  RH WIND       PRES   REMARKS
DAVENPORT      CLOUDY    35  32  88 N10       29.66F WCI  27
IOWA CITY      CLOUDY    36  32  85 N10       29.70S WCI  28
MT. PLEASANT * CLOUDY    34  34 100 NW9       29.70R WCI  26
MUSCATINE *    CLOUDY    37  34  87 NW9       29.68F WCI  31
QUAD CITIES    CLOUDY    36  33  89 NW6       29.65F FOG     WCI  31
$$

IAZ062-063-075>077-085>089-095>099-241700-
   SOUTHEAST IOWA

CITY           SKY/WX    TMP DP  RH WIND       PRES   REMARKS
BURLINGTON     CLOUDY    36  35  96 NW6       29.68S FOG     WCI  31
FAIRFIELD *    CLOUDY    36  32  87 NW13      29.70S WCI  27
FORT MADISON * LGT RAIN  37  37 100 NW5       29.70S WCI  34
KEOKUK *       MIX PCPN  36  36 100 NW7       29.70R WCI  30
OSKALOOSA *    CLOUDY    36  32  87 NW16      29.72R WCI  26
CENTERVILLE *  CLOUDY    34  34 100 NW14      29.75R WCI  24
OTTUMWA        CLOUDY    35  33  92 NW15      29.71S WCI  25
WASHINGTON *   CLOUDY    36  36 100 N12       29.69S WCI  27
$$

ABBREVIATIONS USED IN REMARKS
   TC - TEMPERATURES IN CELSIUS
  WCI - WIND CHILL INDEX
   HX - HEAT INDEX
  VSB - VISIBILITY
$$




USA.gov is the U.S. government's official web portal to all federal, state and local government web resources and services.